Location: East Arcadia
(34.1056°N, 118.0176°W)
Time: 02:10:47
(UTC+00:00)

Cosmos 1727 Rocket - Pass Details

Date: 01 April 2023
Orbit: 961 x 995 km, 82.9° (Epoch: 08 June)

Event Time Altitude Azimuth Distance (km) Brightness Sun altitude
Rises 12:41:24 0° 356° (N) 3,654 7.1 -12.7°
Reaches altitude 10° 12:43:56 10° 358° (N) 2,702 6.5 -12.2°
Maximum altitude 12:50:06 72° 83° (E) 1,008 4.3 -10.9°
Drops below altitude 10° 12:56:14 10° 168° (SSE) 2,690 6.3 -9.7°
Sets 12:58:44 0° 170° (S) 3,636 7.0 -9.2°
